Terug naar catalogus

CZ-6A DEB

ActiefPO
NORAD 61385·DEBRIS·🇨🇳 China

Gelanceerd Aug 6, 2024 vanaf Taiyuan Satellite Launch Center

Loading…

Volgende Passages (komende 24 uur)

TLE

VersSource: Space-Track

Epoch: Sep 14, 2026, 10:11 UTC

1 61385U 24140XA  26257.42461492  .00034260  00000-0  18483-2 0  9999
2 61385  88.8452 240.6624 0057541 183.4733 176.6118 15.13166554109721

Volg CZ-6A DEB in realtime met AllMySat

Download on the App Store